User: anonymous   Login
Location: Unspecified
(0.0000°N, 0.0000°E)
Time: 11:03:54
(UTC+00:00)
Language:

YUBILEINY - Orbit

View from above orbital plane
View from above orbital plane
View from above satellite
View from above satellite

Ground track
Ground track

The orbit data is extracted from the following two-line orbital elements,

1 32953U 08025A   17269.21117454  .00000016  00000-0  43580-4 0  9998
2 32953  82.5062 176.8433 0020197  64.8603 295.4569 12.43079219423978
Epoch (UTC): 26 September 2017 05:04:05
Eccentricity: 0.0020197
inclination: 82.5062°
perigee height: 1477 km
apogee height: 1509 km
right ascension of ascending node: 176.8433°
argument of perigee: 64.8603°
revolutions per day: 12.43079219
mean anomaly at epoch: 295.4569°
orbit number at epoch: 42397

The dashed part of the orbit path shows where the satellite is in the earth's shadow,  

DLR